Location: Newark
(33.6333°S, 78.8500°W)
Time: 06:52:47
(UTC+00:00)

Courier 1B - Pass Details

Date: 23 September 2019
Orbit: 962 x 1209 km, 28.3° (Epoch: 19 October)

Event Time Altitude Azimuth Distance (km) Brightness Sun altitude
Rises 20:37:57 0° 313° (NW) 4,102 11.8 30.6°
Reaches altitude 10° 20:41:09 10° 322° (NW) 3,132 11.2 29.9°
Maximum altitude 20:47:53 32° 22° (NNE) 1,906 9.3 28.6°
Drops below altitude 10° 20:54:24 10° 81° (E) 3,041 9.7 27.4°
Sets 20:57:28 0° 90° (E) 3,966 10.2 26.8°
